| time (UTC) | temp C | wind direction | speed KPH | gust KPH | rain 1hr cm | rain 24hr cm | rain mn cm | humidity % | barometer mb |
| 20260905215851 | 23 | 5 | 3.2 | 8.0 | 0.00 | 0.03 | 0.03 | 64 | 1015.4 |
| 20260905214853 | 23 | 40 | 3.2 | 8.0 | 0.00 | 0.03 | 0.03 | 63 | 1015.2 |
| 20260905213853 | 23 | 53 | 6.4 | 14.5 | 0.00 | 0.03 | 0.03 | 64 | 1015.2 |
| 20260905212854 | 23 | 351 | 6.4 | 11.3 | 0.00 | 0.03 | 0.03 | 64 | 1015.4 |
| 20260905211850 | 23 | 0 | 6.4 | 11.3 | 0.00 | 0.03 | 0.03 | 64 | 1015.4 |
| 20260905210854 | 23 | 42 | 6.4 | 11.3 | 0.00 | 0.03 | 0.03 | 64 | 1015.2 |
| 20260905205853 | 23 | 342 | 3.2 | 11.3 | 0.00 | 0.03 | 0.03 | 65 | 1015.1 |
| 20260905204845 | 23 | 355 | 3.2 | 11.3 | 0.00 | 0.03 | 0.03 | 63 | 1015.1 |
| 20260905203845 | 24 | 53 | 3.2 | 11.3 | 0.00 | 0.03 | 0.03 | 61 | 1015.1 |
| 20260905202844 | 24 | 64 | 3.2 | 11.3 | 0.00 | 0.03 | 0.03 | 61 | 1015.2 |
| 20260905201845 | 24 | 5 | 0.0 | 8.0 | 0.00 | 0.03 | 0.03 | 63 | 1015.4 |
| 20260905200846 | 24 | 0 | 3.2 | 8.0 | 0.00 | 0.03 | 0.03 | 61 | 1015.4 |
| 20260905195843 | 24 | 40 | 3.2 | 8.0 | 0.00 | 0.03 | 0.03 | 60 | 1015.5 |
| 20260905194846 | 24 | 57 | 6.4 | 8.0 | 0.00 | 0.03 | 0.03 | 60 | 1015.6 |
| 20260905193845 | 24 | 49 | 3.2 | 11.3 | 0.00 | 0.03 | 0.03 | 62 | 1015.4 |
| 20260905192853 | 24 | 46 | 6.4 | 11.3 | 0.00 | 0.03 | 0.03 | 60 | 1015.5 |
| 20260905191844 | 24 | 46 | 3.2 | 11.3 | 0.00 | 0.03 | 0.03 | 62 | 1015.7 |
| 20260905190839 | 24 | 45 | 3.2 | 8.0 | 0.00 | 0.03 | 0.03 | 62 | 1015.7 |
| 20260905185838 | 24 | 42 | 6.4 | 11.3 | 0.00 | 0.03 | 0.03 | 63 | 1015.7 |
| 20260905184836 | 24 | 13 | 3.2 | 8.0 | 0.00 | 0.03 | 0.03 | 65 | 1015.7 |
| 20260905183836 | 24 | 28 | 6.4 | 11.3 | 0.00 | 0.03 | 0.03 | 64 | 1015.7 |
| 20260905182836 | 24 | 11 | 3.2 | 14.5 | 0.00 | 0.03 | 0.03 | 66 | 1015.7 |
| 20260905181838 | 23 | 5 | 3.2 | 11.3 | 0.00 | 0.03 | 0.03 | 68 | 1015.7 |
| 20260905180837 | 23 | 59 | 3.2 | 8.0 | 0.03 | 0.03 | 0.03 | 68 | 1015.8 |
| 20260905175840 | 23 | 19 | 3.2 | 8.0 | 0.03 | 0.03 | 0.03 | 68 | 1015.6 |
| 20260905174832 | 23 | 55 | 3.2 | 8.0 | 0.03 | 0.03 | 0.03 | 67 | 1015.7 |
| 20260905173832 | 23 | 56 | 3.2 | 14.5 | 0.03 | 0.03 | 0.03 | 65 | 1015.7 |
| 20260905172833 | 23 | 53 | 3.2 | 8.0 | 0.03 | 0.03 | 0.03 | 69 | 1015.7 |
| 20260905171831 | 23 | 45 | 3.2 | 8.0 | 0.03 | 0.03 | 0.03 | 68 | 1015.7 |
| 20260905170831 | 23 | 36 | 3.2 | 8.0 | 0.00 | 0.00 | 0.00 | 67 | 1015.8 |
| 20260905165829 | 23 | 44 | 0.0 | 8.0 | 0.00 | 0.00 | 0.00 | 68 | 1015.9 |
| 20260905164831 | 23 | 51 | 3.2 | 11.3 | 0.00 | 0.00 | 0.00 | 70 | 1015.9 |
| 20260905163831 | 23 | 0 | 3.2 | 8.0 | 0.00 | 0.00 | 0.00 | 70 | 1015.8 |
| 20260905162833 | 23 | 74 | 3.2 | 8.0 | 0.00 | 0.00 | 0.00 | 70 | 1015.8 |
| 20260905161832 | 23 | 42 | 3.2 | 8.0 | 0.00 | 0.00 | 0.00 | 72 | 1015.9 |
| 20260905160826 | 23 | 346 | 3.2 | 8.0 | 0.00 | 0.00 | 0.00 | 69 | 1015.9 |
| 20260905155830 | 22 | 42 | 3.2 | 11.3 | 0.00 | 0.00 | 0.00 | 71 | 1015.8 |
| 20260905154828 | 23 | 45 | 3.2 | 8.0 | 0.00 | 0.00 | 0.00 | 70 | 1015.8 |
| 20260905153827 | 22 | 66 | 3.2 | 8.0 | 0.00 | 0.00 | 0.00 | 70 | 1015.7 |
| 20260905152829 | 22 | 44 | 3.2 | 8.0 | 0.00 | 0.00 | 0.00 | 71 | 1015.6 |
| 20260905151827 | 22 | 41 | 3.2 | 11.3 | 0.00 | 0.00 | 0.00 | 69 | 1015.5 |
| 20260905150828 | 22 | 58 | 3.2 | 11.3 | 0.00 | 0.00 | 0.00 | 71 | 1015.5 |
| 20260905145828 | 22 | 45 | 0.0 | 6.4 | 0.00 | 0.00 | 0.00 | 73 | 1015.5 |
| 20260905144826 | 21 | 53 | 0.0 | 6.4 | 0.00 | 0.00 | 0.00 | 74 | 1015.4 |
| 20260905143830 | 21 | 30 | 0.0 | 8.0 | 0.00 | 0.03 | 0.00 | 78 | 1015.2 |
| 20260905142827 | 20 | 46 | 3.2 | 8.0 | 0.00 | 0.05 | 0.00 | 80 | 1015.2 |
| 20260905141825 | 20 | 48 | 3.2 | 8.0 | 0.00 | 0.08 | 0.00 | 83 | 1015.2 |
| 20260905140824 | 20 | 48 | 3.2 | 6.4 | 0.00 | 0.10 | 0.00 | 84 | 1015.2 |
| 20260905135828 | 19 | 45 | 0.0 | 6.4 | 0.00 | 0.13 | 0.00 | 86 | 1015.4 |
| 20260905134823 | 19 | 40 | 0.0 | 6.4 | 0.00 | 0.13 | 0.00 | 86 | 1015.2 |
| 20260905133823 | 19 | 52 | 3.2 | 6.4 | 0.00 | 0.15 | 0.00 | 87 | 1015.4 |
| 20260905132818 | 19 | 51 | 3.2 | 8.0 | 0.00 | 0.15 | 0.00 | 88 | 1015.2 |
| 20260905131818 | 19 | 64 | 0.0 | 8.0 | 0.00 | 0.15 | 0.00 | 89 | 1015.5 |
| 20260905130816 | 18 | 49 | 0.0 | 0.0 | 0.00 | 0.18 | 0.00 | 89 | 1015.4 |
| 20260905125818 | 18 | 49 | 0.0 | 0.0 | 0.00 | 0.18 | 0.00 | 90 | 1015.1 |
| 20260905124817 | 18 | 51 | 0.0 | 6.4 | 0.00 | 0.20 | 0.00 | 91 | 1015.2 |
| 20260905123818 | 18 | 51 | 0.0 | 6.4 | 0.00 | 0.20 | 0.00 | 92 | 1015.2 |
| 20260905122817 | 18 | 40 | 0.0 | 6.4 | 0.00 | 0.20 | 0.00 | 92 | 1015.1 |
| 20260905121816 | 18 | 49 | 3.2 | 6.4 | 0.00 | 0.20 | 0.00 | 93 | 1014.9 |
| 20260905120820 | 18 | 57 | 0.0 | 8.0 | 0.00 | 0.20 | 0.00 | 93 | 1015.0 |
| 20260905115815 | 18 | 49 | 0.0 | 6.4 | 0.00 | 0.20 | 0.00 | 93 | 1014.9 |
| 20260905114815 | 18 | 49 | 0.0 | 8.0 | 0.00 | 0.20 | 0.00 | 93 | 1014.9 |
| 20260905113813 | 18 | 54 | 0.0 | 6.4 | 0.00 | 0.20 | 0.00 | 94 | 1014.8 |
| 20260905112810 | 18 | 41 | 3.2 | 8.0 | 0.00 | 0.20 | 0.00 | 93 | 1014.8 |
| 20260905111810 | 18 | 42 | 0.0 | 6.4 | 0.00 | 0.20 | 0.00 | 93 | 1014.8 |
| 20260905110811 | 18 | 42 | 0.0 | 6.4 | 0.00 | 0.20 | 0.00 | 93 | 1014.7 |
| 20260905105813 | 18 | 30 | 0.0 | 0.0 | 0.00 | 0.20 | 0.00 | 93 | 1014.6 |
| 20260905104812 | 18 | 30 | 0.0 | 0.0 | 0.00 | 0.20 | 0.00 | 94 | 1014.7 |
| 20260905103812 | 18 | 11 | 0.0 | 0.0 | 0.00 | 0.20 | 0.00 | 93 | 1014.7 |
| 20260905102808 | 18 | 11 | 0.0 | 0.0 | 0.00 | 0.20 | 0.00 | 94 | 1014.7 |
| 20260905101807 | 18 | 329 | 0.0 | 0.0 | 0.00 | 0.20 | 0.00 | 94 | 1014.6 |
| 20260905100808 | 18 | 49 | 0.0 | 0.0 | 0.00 | 0.20 | 0.00 | 94 | 1014.4 |
| 20260905095809 | 18 | 49 | 0.0 | 0.0 | 0.00 | 0.20 | 0.00 | 93 | 1014.5 |
| 20260905094807 | 18 | 49 | 0.0 | 0.0 | 0.00 | 0.20 | 0.00 | 93 | 1014.4 |
| 20260905093806 | 18 | 49 | 0.0 | 0.0 | 0.00 | 0.20 | 0.00 | 93 | 1014.7 |
| 20260905092807 | 19 | 49 | 0.0 | 0.0 | 0.00 | 0.20 | 0.00 | 93 | 1014.8 |
| 20260905091808 | 19 | 49 | 0.0 | 0.0 | 0.00 | 0.20 | 0.00 | 93 | 1014.7 |
| 20260905090813 | 19 | 49 | 0.0 | 0.0 | 0.00 | 0.20 | 0.00 | 93 | 1014.6 |
| 20260905085807 | 19 | 49 | 0.0 | 0.0 | 0.00 | 0.20 | 0.00 | 93 | 1014.3 |
| 20260905084805 | 19 | 49 | 0.0 | 0.0 | 0.00 | 0.20 | 0.00 | 93 | 1014.3 |
| 20260905083807 | 19 | 49 | 0.0 | 0.0 | 0.00 | 0.20 | 0.00 | 93 | 1014.2 |
| 20260905082803 | 19 | 49 | 0.0 | 0.0 | 0.00 | 0.20 | 0.00 | 93 | 1014.1 |
| 20260905081804 | 19 | 49 | 0.0 | 0.0 | 0.00 | 0.20 | 0.00 | 93 | 1013.9 |
| 20260905080806 | 19 | 48 | 0.0 | 0.0 | 0.00 | 0.20 | 0.00 | 93 | 1014.0 |
| 20260905075801 | 19 | 48 | 0.0 | 0.0 | 0.00 | 0.20 | 0.00 | 93 | 1014.0 |
| 20260905074803 | 19 | 48 | 0.0 | 0.0 | 0.00 | 0.20 | 0.00 | 93 | 1014.5 |
| 20260905073801 | 19 | 48 | 0.0 | 0.0 | 0.00 | 0.20 | 0.00 | 93 | 1014.5 |
| 20260905072803 | 19 | 48 | 0.0 | 0.0 | 0.00 | 0.20 | 0.00 | 93 | 1014.2 |
| 20260905071803 | 19 | 48 | 0.0 | 0.0 | 0.00 | 0.20 | 0.00 | 93 | 1014.0 |
| 20260905070802 | 19 | 48 | 0.0 | 0.0 | 0.00 | 0.20 | 0.00 | 93 | 1014.2 |
| 20260905065757 | 19 | 48 | 0.0 | 6.4 | 0.00 | 0.20 | 0.00 | 92 | 1014.2 |
| 20260905064755 | 19 | 48 | 0.0 | 6.4 | 0.00 | 0.20 | 0.00 | 92 | 1013.7 |
| 20260905063758 | 19 | 48 | 3.2 | 8.0 | 0.00 | 0.20 | 0.00 | 92 | 1013.7 |
| 20260905062758 | 19 | 41 | 0.0 | 8.0 | 0.00 | 0.20 | 0.00 | 92 | 1013.9 |
| 20260905061754 | 19 | 42 | 3.2 | 6.4 | 0.00 | 0.20 | 0.00 | 92 | 1014.0 |
| 20260905060755 | 19 | 53 | 0.0 | 6.4 | 0.00 | 0.20 | 0.00 | 92 | 1014.2 |
| 20260905055750 | 19 | 42 | 0.0 | 0.0 | 0.00 | 0.20 | 0.00 | 92 | 1014.3 |
| 20260905054750 | 19 | 45 | 0.0 | 0.0 | 0.00 | 0.20 | 0.00 | 92 | 1014.6 |
| 20260905053752 | 19 | 45 | 0.0 | 0.0 | 0.00 | 0.20 | 0.00 | 92 | 1014.7 |
| 20260905052750 | 20 | 45 | 0.0 | 0.0 | 0.00 | 0.20 | 0.00 | 92 | 1014.6 |
| 20260905051751 | 20 | 45 | 0.0 | 0.0 | 0.00 | 0.20 | 0.00 | 92 | 1014.4 |
| 20260905050751 | 20 | 45 | 0.0 | 0.0 | 0.00 | 0.20 | 0.00 | 92 | 1014.3 |
| 20260905045754 | 20 | 45 | 0.0 | 0.0 | 0.00 | 0.20 | 0.00 | 92 | 1014.4 |
| 20260905044749 | 20 | 45 | 0.0 | 0.0 | 0.00 | 0.20 | 0.00 | 92 | 1014.4 |
| 20260905043752 | 20 | 45 | 0.0 | 0.0 | 0.00 | 0.20 | 0.00 | 92 | 1014.5 |
| 20260905042744 | 20 | 45 | 0.0 | 0.0 | 0.00 | 0.20 | 0.00 | 92 | 1014.5 |
| 20260905041745 | 20 | 45 | 0.0 | 0.0 | 0.00 | 0.20 | 0.00 | 92 | 1014.5 |
| 20260905040743 | 20 | 45 | 0.0 | 0.0 | 0.00 | 0.20 | 0.00 | 92 | 1014.6 |
| 20260905035744 | 20 | 45 | 0.0 | 0.0 | 0.00 | 0.20 | 0.20 | 92 | 1014.6 |
| 20260905034741 | 20 | 45 | 0.0 | 0.0 | 0.00 | 0.20 | 0.20 | 92 | 1014.7 |
| 20260905033744 | 20 | 45 | 0.0 | 0.0 | 0.00 | 0.20 | 0.20 | 92 | 1014.9 |
| 20260905032744 | 21 | 45 | 0.0 | 0.0 | 0.00 | 0.20 | 0.20 | 92 | 1014.9 |
| 20260905031740 | 21 | 45 | 0.0 | 0.0 | 0.00 | 0.20 | 0.20 | 92 | 1015.2 |
| 20260905030737 | 21 | 41 | 0.0 | 0.0 | 0.00 | 0.20 | 0.20 | 92 | 1015.4 |
| 20260905025736 | 21 | 41 | 0.0 | 0.0 | 0.00 | 0.20 | 0.20 | 92 | 1015.2 |
| 20260905024736 | 21 | 46 | 0.0 | 3.2 | 0.00 | 0.20 | 0.20 | 92 | 1015.1 |
| 20260905023735 | 21 | 46 | 0.0 | 6.4 | 0.00 | 0.20 | 0.20 | 92 | 1015.0 |
| 20260905022732 | 21 | 46 | 0.0 | 6.4 | 0.00 | 0.20 | 0.20 | 92 | 1015.0 |
| 20260905021730 | 21 | 46 | 0.0 | 3.2 | 0.00 | 0.20 | 0.20 | 92 | 1015.1 |
| 20260905020733 | 21 | 46 | 0.0 | 6.4 | 0.00 | 0.20 | 0.20 | 91 | 1015.1 |
| 20260905015732 | 21 | 52 | 0.0 | 0.0 | 0.00 | 0.20 | 0.20 | 91 | 1015.1 |
| 20260905014730 | 21 | 52 | 0.0 | 3.2 | 0.00 | 0.20 | 0.20 | 91 | 1015.4 |
| 20260905013729 | 21 | 52 | 0.0 | 3.2 | 0.00 | 0.20 | 0.20 | 91 | 1015.2 |
| 20260905012729 | 22 | 52 | 3.2 | 8.0 | 0.00 | 0.20 | 0.20 | 91 | 1015.2 |
| 20260905011733 | 22 | 54 | 3.2 | 8.0 | 0.00 | 0.20 | 0.20 | 90 | 1015.1 |
| 20260905010731 | 22 | 5 | 3.2 | 8.0 | 0.00 | 0.20 | 0.20 | 90 | 1015.0 |
| 20260905005725 | 22 | 73 | 3.2 | 8.0 | 0.00 | 0.20 | 0.20 | 89 | 1014.7 |
| 20260905004722 | 23 | 51 | 6.4 | 8.0 | 0.00 | 0.20 | 0.20 | 88 | 1014.7 |
| 20260905003722 | 23 | 42 | 3.2 | 6.4 | 0.00 | 0.20 | 0.20 | 88 | 1014.7 |
| 20260905002723 | 23 | 34 | 0.0 | 8.0 | 0.00 | 0.20 | 0.20 | 88 | 1014.6 |
| 20260905001722 | 23 | 329 | 0.0 | 0.0 | 0.00 | 0.20 | 0.20 | 87 | 1014.5 |
| 20260905000722 | 23 | 329 | 0.0 | 0.0 | 0.00 | 0.20 | 0.20 | 86 | 1014.3 |
| 20260904235719 | 24 | 329 | 0.0 | 0.0 | 0.00 | 0.20 | 0.20 | 87 | 1014.3 |
| 20260904234719 | 24 | 329 | 0.0 | 0.0 | 0.00 | 0.20 | 0.20 | 86 | 1014.3 |
| 20260904233729 | 24 | 329 | 0.0 | 0.0 | 0.00 | 0.20 | 0.20 | 86 | 1014.3 |
| 20260904232721 | 24 | 329 | 0.0 | 0.0 | 0.00 | 0.20 | 0.20 | 86 | 1014.1 |
| 20260904231716 | 24 | 329 | 0.0 | 0.0 | 0.00 | 0.20 | 0.20 | 86 | 1014.1 |
| 20260904230714 | 24 | 329 | 0.0 | 0.0 | 0.00 | 0.20 | 0.20 | 86 | 1013.9 |
| 20260904225716 | 24 | 329 | 0.0 | 0.0 | 0.00 | 0.20 | 0.20 | 86 | 1013.9 |
| 20260904224713 | 24 | 317 | 0.0 | 0.0 | 0.00 | 0.20 | 0.20 | 85 | 1013.7 |
| 20260904223713 | 24 | 317 | 0.0 | 0.0 | 0.00 | 0.20 | 0.20 | 85 | 1013.6 |
| 20260904222719 | 24 | 316 | 0.0 | 6.4 | 0.00 | 0.20 | 0.20 | 85 | 1013.7 |
| 20260904221716 | 24 | 344 | 0.0 | 6.4 | 0.00 | 0.20 | 0.20 | 85 | 1013.6 |
| 20260904220715 | 24 | 319 | 0.0 | 6.4 | 0.00 | 0.20 | 0.20 | 84 | 1013.6 |